Location: Sungai Anya
(2.6167°N, 114.0500°E)
Time: 18:01:58
(UTC+00:00)

Cosmos 1605 Rocket - Pass Details

Date: 19 October 2021
Orbit: 945 x 1006 km, 82.9° (Epoch: 07 December)

Event Time Altitude Azimuth Distance (km) Brightness Sun altitude
Rises 11:08:09 0° 184° (S) 3,619 7.2 -15.1°
Reaches altitude 10° 11:10:38 10° 184° (S) 2,678 6.5 -15.7°
Maximum altitude 11:16:45 87° 270° (W) 966 4.0 -17.2°
Drops below altitude 10° 11:22:58 10° 2° (N) 2,709 6.2 -18.7°
Sets 11:25:29 0° 3° (N) 3,663 6.9 -19.3°
